�N����,����,�~����,�C��,���x,�C��,����,���ϕ���,�ő�u�ԕ���,�ő厞����,���˗�,�I�_���x,�n�����x,�ő啗���N��,DTYPE
"17/08/30","00:10",0.0,26.6,84.1,1003.1,288.5,0.6,1.6,312.5,0.00,23.7,27.4,"00:01:44",1
"17/08/30","00:20",0.0,26.5,84.3,1003.1,303.6,1.1,3.3,338.0,0.00,23.7,27.2,"00:17:12",1
"17/08/30","00:30",0.0,26.4,84.7,1003.1,323.4,1.0,3.2,341.4,0.00,23.7,27.3,"00:22:32",1
"17/08/30","00:40",0.0,26.3,84.9,1003.4,314.8,1.0,2.5,336.9,0.00,23.6,27.4,"00:30:24",1
"17/08/30","00:50",0.0,26.3,85.0,1003.1,324.3,1.2,2.5,359.9,0.00,23.6,27.3,"00:46:48",1
"17/08/30","01:00",0.0,26.2,84.8,1003.4,310.2,1.1,2.0,320.6,0.00,23.5,27.5,"00:54:24",1
"17/08/30","01:10",0.0,26.0,84.8,1003.4,322.8,1.2,3.7,338.2,0.00,23.3,27.0,"01:08:00",1
"17/08/30","01:20",0.0,25.9,85.2,1003.4,335.3,1.5,2.6,343.5,0.00,23.3,27.1,"01:14:48",1
"17/08/30","01:30",0.0,25.8,85.5,1003.1,330.8,1.5,3.1,343.3,0.00,23.2,27.1,"01:27:28",1
"17/08/30","01:40",0.0,25.8,85.5,1003.1,332.8,1.7,2.8,336.3,0.00,23.2,27.1,"01:34:00",1
"17/08/30","01:50",0.0,25.8,85.4,1003.4,319.2,1.2,3.1,341.7,0.00,23.2,27.2,"01:40:40",1
"17/08/30","02:00",0.0,25.8,85.3,1002.9,328.0,1.1,2.2,337.6,0.00,23.2,27.1,"01:50:16",1
"17/08/30","02:10",0.0,25.8,85.3,1003.1,336.7,1.2,2.0,343.2,0.00,23.2,27.0,"02:03:36",1
"17/08/30","02:20",0.0,25.7,85.3,1003.6,329.6,1.3,3.4,340.4,0.00,23.1,27.0,"02:19:04",1
"17/08/30","02:30",0.0,25.6,85.2,1002.9,317.1,1.1,2.2,334.0,0.00,23.0,27.0,"02:28:56",1
"17/08/30","02:40",0.0,25.6,85.2,1003.1,292.5,1.0,2.0,348.2,0.00,23.0,26.9,"02:31:20",1
"17/08/30","02:50",0.0,25.6,85.2,1002.9,286.8,0.8,1.6,322.8,0.00,23.0,26.9,"02:47:04",1
"17/08/30","03:00",0.0,25.6,85.2,1002.9,278.5,0.8,1.4,288.3,0.00,23.0,26.8,"02:51:52",1
"17/08/30","03:10",0.0,25.5,85.3,1003.1,325.9,0.8,2.5,338.4,0.00,22.9,26.8,"03:09:12",1
"17/08/30","03:20",0.0,25.5,85.3,1002.9,322.0,1.2,2.5,331.2,0.00,22.9,26.8,"03:12:48",1
"17/08/30","03:30",0.0,25.4,85.3,1002.9,314.3,0.8,1.9,323.1,0.00,22.8,26.7,"03:22:48",1
"17/08/30","03:40",0.0,25.3,85.5,1002.9,326.6,1.1,3.2,348.5,0.00,22.7,26.8,"03:37:20",1
"17/08/30","03:50",0.0,25.3,85.6,1003.1,336.3,1.5,2.9,341.8,0.00,22.8,26.7,"03:41:12",1
"17/08/30","04:00",0.0,25.3,85.7,1002.9,321.1,1.0,2.2,338.9,0.00,22.8,26.9,"03:52:40",1
"17/08/30","04:10",0.0,25.2,86.1,1002.9,325.1,1.0,2.1,333.4,0.00,22.7,26.5,"04:04:24",1
"17/08/30","04:20",0.0,25.2,86.3,1002.9,324.2,0.8,1.7,338.8,0.00,22.8,26.6,"04:11:04",1
"17/08/30","04:30",0.0,25.2,86.2,1002.9,311.8,0.8,1.8,354.8,0.00,22.8,26.7,"04:27:44",1
"17/08/30","04:40",0.0,25.2,85.5,1003.1,348.9,1.3,2.2,338.0,0.00,22.6,26.7,"04:38:16",1
"17/08/30","04:50",0.0,25.3,85.5,1002.6,334.8,1.1,1.9,339.4,0.00,22.7,26.6,"04:47:20",1
"17/08/30","05:00",0.0,25.3,85.9,1002.9,329.3,1.3,2.4,324.8,0.00,22.8,26.5,"04:55:36",1
"17/08/30","05:10",0.0,25.1,85.9,1003.4,340.1,1.2,2.2,353.8,0.00,22.6,26.6,"05:03:52",1
"17/08/30","05:20",0.0,25.0,85.1,1003.4,342.9,1.2,2.0,332.9,0.00,22.4,26.5,"05:11:20",1
"17/08/30","05:30",0.0,24.9,84.1,1003.1,346.9,1.5,2.9,335.1,0.00,22.1,26.4,"05:26:16",1
"17/08/30","05:40",0.0,24.9,83.4,1003.4,343.8,1.5,3.1,347.8,0.00,21.9,26.5,"05:39:44",1
"17/08/30","05:50",0.0,24.9,82.9,1003.4,337.5,2.2,4.4,344.1,0.00,21.8,26.3,"05:47:12",1
"17/08/30","06:00",0.0,24.9,82.7,1003.4,339.7,1.8,3.9,353.8,0.00,21.8,26.4,"05:56:56",1
"17/08/30","06:10",0.0,24.9,82.5,1003.1,333.2,2.2,4.2,335.6,0.00,21.8,26.3,"06:02:24",1
"17/08/30","06:20",0.0,25.0,82.6,1003.4,339.4,1.8,4.9,341.3,0.00,21.9,26.3,"06:12:24",1
"17/08/30","06:30",0.0,25.1,81.9,1003.4,330.5,2.2,4.3,336.7,0.02,21.8,26.4,"06:24:08",1
"17/08/30","06:40",0.0,25.2,81.3,1003.4,333.8,2.3,5.6,335.1,0.02,21.8,26.4,"06:36:40",1
"17/08/30","06:50",0.0,25.1,81.3,1003.4,338.5,2.5,4.4,24.7,0.01,21.7,26.3,"06:41:36",1
"17/08/30","07:00",0.0,25.1,82.0,1003.8,332.5,2.1,4.3,343.1,0.02,21.9,26.2,"06:52:32",1
"17/08/30","07:10",0.0,25.2,81.3,1003.6,335.3,2.2,5.0,338.3,0.03,21.8,26.4,"07:08:08",1
"17/08/30","07:20",0.0,25.5,80.7,1003.8,336.5,2.8,6.4,347.2,0.08,22.0,26.3,"07:17:52",1
"17/08/30","07:30",0.0,25.5,79.3,1003.8,341.1,2.7,5.8,338.8,0.07,21.7,26.3,"07:25:04",1
"17/08/30","07:40",0.0,25.4,79.5,1003.4,342.2,2.6,4.4,347.9,0.09,21.6,26.3,"07:36:00",1
"17/08/30","07:50",0.0,25.6,79.5,1003.4,351.4,2.0,5.5,344.0,0.08,21.8,26.2,"07:42:40",1
"17/08/30","08:00",0.0,25.9,79.3,1003.1,331.7,1.5,2.8,337.3,0.09,22.1,26.5,"07:52:08",1
"17/08/30","08:10",0.0,26.4,76.6,1003.4,329.9,1.6,4.2,347.3,0.15,22.0,26.6,"08:08:00",1
"17/08/30","08:20",0.0,26.2,77.8,1003.1,326.3,1.6,2.9,317.7,0.10,22.1,26.6,"08:12:48",1
"17/08/30","08:30",0.0,26.2,77.9,1003.4,308.2,1.1,2.8,336.4,0.09,22.1,26.6,"08:22:08",1
"17/08/30","08:40",0.0,26.5,77.6,1003.4,316.6,1.3,3.6,343.0,0.09,22.3,26.6,"08:37:36",1
"17/08/30","08:50",0.0,26.3,77.6,1002.9,304.2,1.1,2.7,315.7,0.08,22.1,26.7,"08:41:28",1
"17/08/30","09:00",0.0,26.1,78.5,1003.4,294.9,1.2,2.5,282.0,0.10,22.1,26.6,"08:53:52",1
"17/08/30","09:10",0.0,26.2,79.2,1003.1,312.4,1.2,2.9,328.1,0.10,22.4,26.7,"09:02:56",1
"17/08/30","09:20",0.0,26.2,78.8,1003.1,273.6,1.2,3.3,222.0,0.14,22.3,26.8,"09:11:28",1
"17/08/30","09:30",0.0,26.6,76.9,1003.1,315.5,1.1,3.1,317.4,0.16,22.3,27.0,"09:27:52",1
"17/08/30","09:40",0.0,26.6,76.4,1003.1,344.3,2.2,4.2,326.7,0.15,22.1,27.0,"09:33:28",1
"17/08/30","09:50",0.0,26.4,76.0,1002.9,341.5,1.8,4.2,337.6,0.09,21.9,27.0,"09:44:16",1
"17/08/30","10:00",0.0,26.5,76.2,1002.9,335.0,1.8,3.9,346.3,0.08,22.0,26.9,"09:54:00",1
"17/08/30","10:10",0.0,26.7,76.1,1002.9,337.9,1.6,3.1,337.8,0.11,22.2,27.1,"10:09:44",1
"17/08/30","10:20",0.0,26.8,76.4,1002.6,313.1,1.6,3.5,358.1,0.14,22.3,27.2,"10:10:02",1
"17/08/30","10:30",0.0,27.8,74.9,1002.4,325.1,1.2,3.2,331.5,0.25,23.0,27.2,"10:20:24",1
"17/08/30","10:40",0.0,27.6,73.9,1002.2,310.2,1.3,3.3,335.9,0.28,22.6,27.2,"10:31:04",1
"17/08/30","10:50",0.0,27.7,74.5,1001.5,289.8,1.2,2.5,330.3,0.30,22.8,27.5,"10:42:00",1
"17/08/30","11:00",0.0,29.0,69.6,1001.9,246.7,1.0,2.9,228.3,0.44,22.9,27.7,"10:50:48",1
"17/08/30","11:10",0.0,30.2,67.9,1002.6,316.9,1.0,2.6,338.0,0.51,23.7,28.2,"11:08:16",1
"17/08/30","11:20",0.0,30.9,64.8,1002.6,316.8,1.0,3.1,337.1,0.54,23.5,28.5,"11:11:12",1
"17/08/30","11:30",0.0,30.7,66.1,1003.1,329.8,1.2,3.4,346.8,0.54,23.7,28.8,"11:23:36",1
"17/08/30","11:40",0.0,30.2,67.4,1002.6,334.2,1.5,3.7,347.0,0.44,23.5,28.8,"11:31:28",1
"17/08/30","11:50",0.0,31.3,64.4,1003.1,328.2,1.2,3.9,340.5,0.61,23.8,29.4,"11:46:56",1
"17/08/30","12:00",0.0,31.7,61.7,1003.4,320.7,1.5,3.6,228.0,0.64,23.5,29.8,"11:52:56",1
"17/08/30","12:10",0.0,31.5,62.2,1003.1,337.8,1.7,3.4,349.9,0.60,23.4,30.1,"12:07:44",1
"17/08/30","12:20",0.0,30.6,64.4,1002.9,355.6,1.7,3.9,342.2,0.39,23.2,30.4,"12:15:28",1
"17/08/30","12:30",0.0,30.6,65.3,1002.4,351.9,2.3,4.3,21.9,0.39,23.4,30.2,"12:28:48",1
"17/08/30","12:40",0.0,30.2,65.8,1002.2,350.9,2.5,4.8,340.6,0.48,23.1,30.5,"12:34:40",1
"17/08/30","12:50",0.0,29.9,65.8,1001.7,349.4,3.0,6.4,329.0,0.54,22.8,30.7,"12:47:04",1
"17/08/30","13:00",0.0,29.9,64.8,1001.7,349.0,3.0,7.2,10.8,0.54,22.6,30.8,"12:52:48",1
"17/08/30","13:10",0.0,29.3,66.9,1001.5,349.0,3.2,6.7,356.8,0.51,22.6,30.9,"13:06:40",1
"17/08/30","13:20",0.0,28.7,69.5,1001.2,345.4,3.6,10.2,346.0,0.46,22.6,30.7,"13:12:08",1
"17/08/30","13:30",0.0,28.8,68.4,1001.5,340.3,3.5,6.3,331.7,0.51,22.4,30.9,"13:27:52",1
"17/08/30","13:40",0.0,29.1,67.1,1001.2,349.5,3.4,7.1,349.9,0.57,22.4,30.9,"13:30:32",1
"17/08/30","13:50",0.0,28.6,66.6,1001.2,344.2,3.1,6.7,342.2,0.44,21.8,30.9,"13:47:52",1
"17/08/30","14:00",0.0,28.3,67.5,1001.2,340.2,3.1,5.8,340.1,0.32,21.7,30.7,"13:56:00",1
"17/08/30","14:10",0.0,27.8,68.2,1000.8,339.5,3.1,6.2,351.3,0.18,21.4,30.7,"14:02:16",1
"17/08/30","14:20",0.0,27.6,69.4,1000.5,343.2,3.1,5.9,329.6,0.14,21.5,30.4,"14:13:44",1
"17/08/30","14:30",0.0,27.7,69.4,999.8,346.6,2.7,5.7,333.4,0.13,21.6,30.2,"14:20:16",1
"17/08/30","14:40",0.0,29.1,64.8,1000.3,341.8,2.5,5.7,338.0,0.29,21.8,30.3,"14:32:08",1
"17/08/30","14:50",0.0,29.9,63.3,1000.8,1.7,2.6,4.8,345.4,0.43,22.2,30.0,"14:49:12",1
"17/08/30","15:00",0.0,29.5,64.3,1000.5,355.2,2.5,4.8,351.6,0.34,22.1,30.0,"14:56:48",1
"17/08/30","15:10",0.0,29.7,62.7,1000.8,354.8,2.1,4.8,342.6,0.35,21.9,30.4,"15:07:12",1
"17/08/30","15:20",0.0,28.8,63.8,1000.8,345.9,3.1,6.8,336.8,0.33,21.3,30.1,"15:16:56",1
"17/08/30","15:30",0.0,28.6,62.8,1000.8,341.6,3.9,8.6,342.0,0.32,20.9,30.2,"15:22:08",1
"17/08/30","15:40",0.0,29.1,61.8,1000.3,327.4,3.0,5.9,328.9,0.29,21.1,30.2,"15:34:32",1
"17/08/30","15:50",0.0,29.2,60.3,1000.0,342.2,2.8,5.9,337.4,0.27,20.8,30.3,"15:40:32",1
"17/08/30","16:00",0.0,29.5,60.4,1000.0,347.5,2.3,5.1,347.6,0.24,21.1,30.2,"15:53:44",1
"17/08/30","16:10",0.0,29.3,59.0,999.6,341.6,2.2,7.7,337.7,0.22,20.5,30.1,"16:09:04",1
"17/08/30","16:20",0.0,29.1,56.0,999.3,344.0,2.2,5.7,1.6,0.19,19.5,30.2,"16:19:20",1
"17/08/30","16:30",0.0,28.7,56.7,999.8,339.2,3.0,6.0,344.1,0.17,19.3,29.9,"16:28:40",1
"17/08/30","16:40",0.0,28.8,56.3,999.6,348.6,1.8,4.7,321.4,0.15,19.3,29.7,"16:30:16",1
"17/08/30","16:50",0.0,28.7,56.1,999.3,350.4,2.2,5.6,346.4,0.12,19.1,29.7,"16:47:52",1
"17/08/30","17:00",0.0,28.6,54.6,999.8,351.3,1.7,3.7,323.4,0.10,18.6,29.6,"16:51:12",1
"17/08/30","17:10",0.0,28.4,52.0,999.6,6.5,1.7,3.1,314.9,0.08,17.6,29.5,"17:06:00",1
"17/08/30","17:20",0.0,28.3,53.1,999.8,336.6,1.3,4.0,333.8,0.06,17.9,29.4,"17:18:48",1
"17/08/30","17:30",0.0,27.6,51.7,1000.3,332.7,2.3,4.7,324.5,0.04,16.8,29.1,"17:28:08",1
"17/08/30","17:40",0.0,27.1,54.5,1000.3,345.7,2.0,3.6,341.2,0.02,17.2,28.8,"17:38:00",1
"17/08/30","17:50",0.0,26.5,56.5,1000.3,333.0,1.7,4.3,353.1,0.00,17.2,28.9,"17:45:12",1
"17/08/30","18:00",0.0,25.9,59.0,1000.5,338.7,2.3,4.3,357.5,0.00,17.3,28.7,"17:52:16",1
"17/08/30","18:10",0.0,25.5,60.4,1000.8,338.7,2.1,5.2,347.6,0.00,17.3,28.5,"18:08:00",1
"17/08/30","18:20",0.0,25.2,62.5,1001.0,339.7,2.7,5.2,347.8,0.00,17.6,28.3,"18:15:04",1
"17/08/30","18:30",0.0,25.0,64.1,1000.5,336.5,3.0,5.8,338.3,0.00,17.8,28.2,"18:24:48",1
"17/08/30","18:40",0.0,24.8,65.2,1001.0,336.1,3.1,6.5,335.5,0.00,17.9,28.1,"18:38:40",1
"17/08/30","18:50",0.0,24.7,66.5,1000.8,339.2,3.4,7.0,340.8,0.00,18.1,28.0,"18:44:16",1
"17/08/30","19:00",0.0,24.5,67.1,1001.0,331.4,3.1,4.8,305.0,0.00,18.0,27.7,"18:53:36",1
"17/08/30","19:10",0.0,24.5,67.2,1001.5,332.3,3.1,5.5,320.3,0.00,18.1,27.7,"19:06:08",1
"17/08/30","19:20",0.0,24.3,67.8,1001.7,333.6,2.8,6.2,325.7,0.00,18.0,27.6,"19:16:48",1
"17/08/30","19:30",0.0,24.3,68.2,1001.9,327.3,2.8,5.8,311.4,0.00,18.1,27.3,"19:25:44",1
"17/08/30","19:40",0.0,24.2,68.1,1001.7,325.1,2.5,4.3,338.7,0.00,18.0,27.3,"19:37:52",1
"17/08/30","19:50",0.0,24.1,68.8,1002.2,329.1,2.8,6.0,340.8,0.00,18.1,27.1,"19:42:32",1
"17/08/30","20:00",0.0,24.0,69.5,1001.7,326.7,3.0,5.8,309.6,0.00,18.1,27.1,"19:50:24",1
"17/08/30","20:10",0.0,24.0,70.1,1002.2,333.3,3.6,6.3,333.2,0.00,18.3,27.0,"20:01:20",1
"17/08/30","20:20",0.0,23.8,70.2,1002.2,329.4,3.0,6.4,345.7,0.00,18.1,26.8,"20:15:20",1
"17/08/30","20:30",0.0,23.7,70.4,1002.2,311.2,2.1,4.1,329.7,0.00,18.0,26.7,"20:21:12",1
"17/08/30","20:40",0.0,23.6,71.2,1002.2,318.4,2.1,5.8,324.5,0.00,18.1,26.6,"20:37:12",1
"17/08/30","20:50",0.0,23.5,70.7,1002.4,315.2,2.1,4.5,325.8,0.00,17.9,26.5,"20:40:32",1
"17/08/30","21:00",0.0,23.4,71.2,1002.2,301.6,1.8,3.9,323.0,0.00,17.9,26.4,"20:53:20",1
"17/08/30","21:10",0.0,23.3,71.5,1002.4,278.4,1.5,2.5,308.0,0.00,17.9,26.5,"21:01:36",1
"17/08/30","21:20",0.0,22.9,73.3,1002.4,290.3,0.8,2.1,325.9,0.00,17.9,26.2,"21:10:08",1
"17/08/30","21:30",0.0,22.5,74.3,1002.4,298.7,1.1,1.8,308.6,0.00,17.7,26.2,"21:24:16",1
"17/08/30","21:40",0.0,22.3,75.5,1002.2,291.0,1.2,1.7,264.5,0.00,17.8,26.1,"21:30:16",1
"17/08/30","21:50",0.0,22.1,77.2,1002.4,312.4,1.3,2.5,337.0,0.00,18.0,26.0,"21:41:36",1
"17/08/30","22:00",0.0,21.9,78.2,1002.2,310.7,1.5,2.5,331.7,0.00,18.0,25.8,"21:52:56",1
"17/08/30","22:10",0.0,21.9,78.2,1002.2,299.7,1.6,3.2,334.9,0.00,18.0,25.9,"22:08:08",1
"17/08/30","22:20",0.0,22.3,77.0,1001.9,324.4,2.8,4.9,326.3,0.00,18.1,25.7,"22:16:32",1
"17/08/30","22:30",0.0,22.5,75.8,1001.9,325.7,2.6,4.4,330.0,0.00,18.1,25.8,"22:22:32",1
"17/08/30","22:40",0.0,22.6,74.8,1002.2,305.4,1.8,4.1,321.5,0.00,17.9,25.7,"22:30:40",1
"17/08/30","22:50",0.0,22.6,73.8,1002.2,304.8,1.8,4.9,0.7,0.00,17.7,25.7,"22:48:00",1
"17/08/30","23:00",0.0,22.7,73.1,1002.2,310.6,1.6,3.2,337.4,0.00,17.7,25.6,"22:56:24",1
"17/08/30","23:10",0.0,22.9,72.3,1001.9,312.0,2.1,5.7,343.9,0.00,17.7,25.6,"23:03:44",1
"17/08/30","23:20",0.0,23.0,71.6,1002.4,327.4,2.5,5.0,336.2,0.00,17.6,25.6,"23:10:40",1
"17/08/30","23:30",0.0,23.0,71.5,1002.4,320.6,2.2,4.1,326.3,0.00,17.6,25.5,"23:20:48",1
"17/08/30","23:40",0.0,22.9,72.0,1002.6,306.7,1.7,4.9,313.8,0.00,17.6,25.4,"23:33:52",1
"17/08/30","23:50",0.0,22.5,73.4,1002.4,292.8,1.3,2.9,319.1,0.00,17.5,25.3,"23:44:24",1
"17/08/30","24:00",0.0,22.2,74.6,1002.6,270.1,1.1,3.1,325.5,0.00,17.5,25.2,"23:51:28",1
